Regional Weather Roundup
Issued by NWS

Home | Current Version | Previous Version | Text Only | Print | Product List | Glossary On
Versions: 1 2 3 4 5 6 7 8 9 10 11 12 13 14 15 16 17 18 19 20 21 22 23 24 25 26 27 28 29 30 31 32 33 34 35 36 37 38 39 40 41 42 43 44 45 46 47 48 49 50
000
ASUS44 KBMX 291510
RWRAL

ALABAMA REGIONAL WEATHER ROUNDUP
NATIONAL WEATHER SERVICE BIRMINGHAM AL
1000 AM CDT TUE JUL 29 2014

NOTE: "FAIR" INDICATES FEW OR NO CLOUDS BELOW 12,000 FEET
WITH NO SIGNIFICANT WEATHER AND/OR OBSTRUCTIONS TO VISIBILITY.

THE REMARK "TC" DENOTES TEMPERATURE IN DEGREES CELSIUS.

ALZ001>011-014-016>018-020-291600-
NORTH ALABAMA

CITY           SKY/WX    TMP DP  RH WIND       PRES   REMARKS
MUSCLE SHOALS  MOSUNNY   73  53  49 N9G16     30.12R
HUNTSVILLE     MOSUNNY   74  59  59 N7        30.09R
DECATUR        MOSUNNY   72  59  63 N7        30.10R
HALEYVILLE     FAIR      72  60  65 VRB6      30.13S
GADSDEN        PTSUNNY   75  61  60 W10       30.05S
$$

ALZ012-013-022-023-030>036-040>044-291600-
WEST CENTRAL ALABAMA

CITY           SKY/WX    TMP DP  RH WIND       PRES   REMARKS
TUSCALOOSA     PTSUNNY   80  62  54 N7        30.07S
$$

ALZ015-024>027-033>036-040>044-291600-
CENTRAL ALABAMA

CITY           SKY/WX    TMP DP  RH WIND       PRES   REMARKS
BIRMINGHAM     MOSUNNY   77  59  53 N10G18    30.09R
MONTGOMERY     SUNNY     83  61  47 NW7       30.04S
SHELBY CO ARPT SUNNY     78  61  55 VRB6      30.07R
MAXWELL AFB    SUNNY     81  64  55 VRB3      30.05R
GREENVILLE     FAIR      82  63  52 NE8       30.05R
$$

ALZ019-021-028-029-037-038-045>048-291600-
EAST CENTRAL ALABAMA

CITY           SKY/WX    TMP DP  RH WIND       PRES   REMARKS
ANNISTON       SUNNY     78  58  49 N9        30.05S
ALEXANDER CITY SUNNY     81  60  49 N8        30.06S
AUBURN         SUNNY     75  59  57 N10       30.08R
$$

ALZ051>064-291600-
SOUTHWEST ALABAMA

CITY           SKY/WX    TMP DP  RH WIND       PRES   REMARKS
MOBILE         MOSUNNY   81  67  62 N10       30.06S
BROOKLEY FIELD SUNNY     82  68  62 N9        30.06S
EVERGREEN      SUNNY     83  65  54 N7        30.06S
$$

ALZ049-050-065>069-291600-
SOUTHEAST ALABAMA

CITY           SKY/WX    TMP DP  RH WIND       PRES   REMARKS
DOTHAN         SUNNY     80  66  62 N7        30.06S
OZARK          SUNNY     81  65  59 N7        30.03R
TROY           SUNNY     82  62  50 MISG      30.05R
EUFAULA        FAIR      83  64  52 VRB5      30.02R
$$


USA.gov is the U.S. government's official web portal to all federal, state and local government web resources and services.